Location: Central Coast
(33.3208°S, 151.2336°E)
Time: 01:38:40
(UTC+11:00)

Vanguard 3 - All Passes

Search period start: 19 December 2017 00:00
Search period end: 29 December 2017 00:00
Orbit: 509 x 3263 km, 33.3° (Epoch: 18 December)

Date Brightness Start Highest point End Pass type
(mag) Time Alt. Az. Time Alt. Az. Time Alt. Az.
19 Dec - 00:42:44 10° W 00:57:58 89° N 01:18:26 10° E visible
19 Dec - 02:57:14 10° W 03:15:57 84° NNW 03:34:58 10° ENE visible
19 Dec - 05:13:35 10° WSW 05:32:44 55° NNW 05:48:08 10° NE visible
19 Dec - 07:34:22 10° W 07:46:14 21° NW 07:55:45 10° N daylight
19 Dec - 21:18:01 10° NNW 21:27:12 43° NE 21:42:11 10° ESE visible
19 Dec - 23:28:30 10° WNW 23:41:17 81° NNE 00:01:02 10° E visible
20 Dec - 01:41:48 10° W 01:58:31 90° N 02:18:47 10° E visible
20 Dec - 03:56:57 10° WSW 04:16:13 70° NNW 04:33:56 10° NE visible
20 Dec - 06:14:44 10° W 06:31:25 36° NW 06:44:41 10° NNE daylight
20 Dec - 20:06:38 10° N 20:13:26 24° NE 20:23:26 10° E daylight
20 Dec - 22:15:01 10° NW 22:25:33 66° NNE 22:43:16 10° ESE visible
21 Dec - 00:27:03 10° W 00:41:22 90° N 01:01:45 10° E visible
21 Dec - 02:41:07 10° W 02:59:05 81° NNW 03:18:37 10° ENE visible
21 Dec - 04:57:06 10° WSW 05:15:44 51° NW 05:31:45 10° NE visible
21 Dec - 07:18:31 10° W 07:29:25 18° NW 07:38:38 10° NNW daylight
21 Dec - 21:02:22 10° NW 21:10:52 46° NE 21:25:18 10° ESE visible
21 Dec - 23:12:57 10° WNW 23:24:52 84° NNE 23:44:08 10° E visible
22 Dec - 01:25:58 10° W 01:41:49 88° N 02:02:14 10° E visible
22 Dec - 03:40:40 10° WSW 03:59:14 66° NNW 04:17:32 10° NE visible
22 Dec - 05:58:24 10° W 06:14:27 32° NW 06:28:00 10° NNE daylight
22 Dec - 19:50:46 10° N 19:57:11 27° NE 20:06:58 10° E daylight
22 Dec - 21:59:31 10° WNW 22:09:16 70° NNE 22:26:18 10° ESE visible
23 Dec - 00:11:26 10° W 00:24:51 90° S 00:44:59 10° E visible
23 Dec - 02:25:06 10° W 02:42:13 78° NNW 03:02:05 10° ENE visible
23 Dec - 04:40:46 10° WSW 04:58:41 47° NW 05:15:11 10° NNE visible
23 Dec - 07:03:09 10° W 07:12:35 16° NW 07:21:00 10° NNW daylight
23 Dec - 18:42:33 10° NE 18:44:11 11° NE 18:45:58 10° ENE daylight
23 Dec - 20:46:48 10° NW 20:54:41 50° NNE 21:08:27 10° ESE visible
23 Dec - 22:57:29 10° WNW 23:08:33 86° N 23:27:12 10° E visible
24 Dec - 01:10:13 10° W 01:25:09 87° N 01:45:34 10° ENE visible
24 Dec - 03:24:31 10° WSW 03:42:14 61° NNW 04:00:55 10° NE visible
24 Dec - 05:42:17 10° W 05:57:27 29° NW 06:11:03 10° N daylight
24 Dec - 19:35:02 10° NNW 19:41:03 29° NE 19:50:30 10° E daylight
24 Dec - 21:44:06 10° WNW 21:53:07 74° NNE 22:09:19 10° E visible
24 Dec - 23:55:53 10° W 00:08:26 90° S 00:28:08 10° E visible
25 Dec - 02:09:10 10° WSW 02:25:23 74° NNW 02:45:25 10° ENE visible
25 Dec - 04:24:36 10° W 04:41:39 42° NW 04:58:21 10° NNE visible
25 Dec - 06:48:36 10° WNW 06:55:46 13° NW 07:02:30 10° NNW daylight
25 Dec - 18:25:38 10° NNE 18:28:07 12° NE 18:31:01 10° ENE daylight
25 Dec - 20:31:22 10° NW 20:38:38 54° NNE 20:51:37 10° ESE visible
25 Dec - 22:42:05 10° W 22:52:22 88° N 23:10:15 10° E visible
26 Dec - 00:54:31 10° W 01:08:32 84° NNW 01:28:45 10° ENE visible
26 Dec - 03:08:29 10° WSW 03:25:15 57° NNW 03:44:06 10° NE visible
26 Dec - 05:26:28 10° W 05:40:29 25° NW 05:53:45 10° N daylight
26 Dec - 19:19:26 10° NNW 19:25:02 31° NE 19:34:03 10° E daylight
26 Dec - 21:28:48 10° WNW 21:37:06 78° NNE 21:52:22 10° E visible
26 Dec - 23:40:25 10° W 23:52:06 90° N 00:11:14 10° E visible
27 Dec - 01:53:21 10° WSW 02:08:35 70° NNW 02:28:32 10° NE visible
27 Dec - 04:08:38 10° W 04:24:38 38° NW 04:41:18 10° NNE visible
27 Dec - 06:36:30 10° WNW 06:39:02 10° NW 06:41:31 10° NW daylight
27 Dec - 18:09:18 10° NNE 18:12:08 13° NE 18:15:37 10° ENE daylight
27 Dec - 20:16:01 10° NW 20:22:43 58° NNE 20:34:51 10° ESE visible
27 Dec - 22:26:46 10° W 22:36:17 90° N 22:53:18 10° E visible
28 Dec - 00:38:55 10° W 00:52:01 81° NNW 01:11:50 10° ENE visible
28 Dec - 02:52:35 10° W 03:08:20 51° NNW 03:27:05 10° NE visible
28 Dec - 05:11:00 10° W 05:23:35 21° NW 05:36:03 10° N visible
28 Dec - 19:03:55 10° NNW 19:09:10 34° NE 19:17:39 10° E daylight
28 Dec - 21:13:32 10° WNW 21:21:13 82° NNE 21:35:29 10° E visible
28 Dec - 23:25:01 10° W 23:35:51 88° N 23:54:16 10° E visible
